Eglin Air Force Base, FL

2:19 PM CST on February 08, 2016 (GMT -0600)
Eglin Air Force Base

Weather History for KVPS - January, 2013

Change the Weather History Date:

Tuesday, January 8, 2013

  Actual Average Record
Temperature  
Mean Temperature 56 °F -  
Max Temperature 63 °F 62 °F 75 °F (1955)
Min Temperature 48 °F 37 °F 11 °F (1970)
Degree Days  
Heating Degree Days 10    
Growing Degree Days 6 (Base 50)    
Moisture  
Dew Point 49 °F    
Average Humidity 76    
Maximum Humidity 83    
Minimum Humidity 70    
Precipitation  
Precipitation 0.00 in - - ()
Sea Level Pressure  
Sea Level Pressure 30.22 in    
Wind  
Wind Speed 6 mph (NE)    
Max Wind Speed 12 mph    
Max Gust Speed -    
Visibility 10 miles    
Events      
Averages and records for this station are not official NWS values.
T = Trace of Precipitation, MM = Missing Value Source: NWS Daily Summary

Daily Weather History Graph

Daily Weather History Graph

Search for Another Location

Airport or City:

Trip Planner

Search our weather history database for the weather conditions in past years. The results will help you decide how hot, cold, wet, or windy it might be!

Date:

Astronomy

Jan. 08, 2013 Rise Set
Actual Time 6:44 AM CST 5:02 PM CST
Civil Twilight 6:17 AM CST 5:28 PM CST
Nautical Twilight 5:48 AM CST 5:58 PM CST
Astronomical Twilight 5:19 AM CST 6:27 PM CST
Moon 3:17 AM CST 2:03 PM CST
Length of Visible Light 11h 10m
Length of Day
10h 17m
Waning Crescent, 13% of the Moon is Illuminated
Jan 8
Waning Crescent
Jan 11
New
Jan 18
First Quarter
Jan 26
Full
Feb 3
Last Quarter

Hourly Weather History & Observations

Time (CST) Temp. Dew Point Humidity Pressure Visibility Wind Dir Wind Speed Gust Speed Precip Events Conditions
12:59 AM 49.1 °F 39.9 °F 71% 30.21 in 10.0 mi East 11.5 mph - N/A   Partly Cloudy
1:59 AM 48.2 °F 40.5 °F 75% 30.21 in 10.0 mi NE 6.9 mph - N/A   Mostly Cloudy
2:57 AM 48.0 °F 41.4 °F 78% 30.21 in 10.0 mi NE 5.8 mph - N/A   Scattered Clouds
3:25 AM 48.2 °F 41.0 °F 76% 30.20 in 10.0 mi NNE 3.5 mph - N/A   Mostly Cloudy
3:55 AM 48.7 °F 42.1 °F 78% 30.22 in 10.0 mi NNE 3.5 mph - N/A   Mostly Cloudy
4:55 AM 50.0 °F 42.8 °F 76% 30.23 in 10.0 mi NE 4.6 mph - N/A   Mostly Cloudy
5:55 AM 50.4 °F 43.2 °F 76% 30.23 in 10.0 mi ENE 4.6 mph - N/A   Overcast
6:25 AM 51.8 °F 44.6 °F 76% 30.23 in 10.0 mi ENE 5.8 mph - N/A   Overcast
6:55 AM 51.3 °F 43.7 °F 75% 30.25 in 10.0 mi ENE 5.8 mph - N/A   Mostly Cloudy
7:19 AM 51.8 °F 44.6 °F 76% 30.24 in 10.0 mi NE 4.6 mph - N/A   Mostly Cloudy
7:55 AM 52.5 °F 44.4 °F 74% 30.26 in 10.0 mi NE 5.8 mph - N/A   Mostly Cloudy
8:55 AM 55.0 °F 45.9 °F 71% 30.28 in 10.0 mi East 6.9 mph - N/A   Overcast
9:06 AM 55.4 °F 46.4 °F 72% 30.27 in 10.0 mi NE 5.8 mph - N/A   Mostly Cloudy
9:55 AM 56.5 °F 47.7 °F 72% 30.28 in 10.0 mi ENE 5.8 mph - N/A   Mostly Cloudy
10:30 AM 59.0 °F 50.0 °F 72% 30.26 in 10.0 mi ENE 8.1 mph - N/A   Overcast
10:55 AM 59.4 °F 50.2 °F 72% 30.27 in 10.0 mi ENE 3.5 mph - N/A   Mostly Cloudy
11:55 AM 60.8 °F 51.6 °F 72% 30.24 in 10.0 mi Calm Calm - N/A   Overcast
12:55 PM 62.6 °F 52.9 °F 70% 30.22 in 10.0 mi NNE 3.5 mph - N/A   Overcast
1:55 PM 63.5 °F 54.0 °F 71% 30.20 in 10.0 mi North 3.5 mph - N/A   Overcast
2:55 PM 63.5 °F 54.1 °F 72% 30.19 in 10.0 mi NNE 4.6 mph - N/A   Overcast
3:55 PM 63.1 °F 53.8 °F 71% 30.19 in 10.0 mi North 4.6 mph - N/A   Overcast
4:39 PM 62.6 °F 53.6 °F 72% 30.18 in 10.0 mi NNE 5.8 mph - N/A   Mostly Cloudy
4:56 PM 61.7 °F 54.0 °F 76% 30.18 in 10.0 mi NNE 5.8 mph - N/A   Mostly Cloudy
5:55 PM 59.5 °F 54.1 °F 82% 30.21 in 10.0 mi NW 3.5 mph - N/A   Mostly Cloudy
6:55 PM 61.0 °F 54.5 °F 79% 30.21 in 10.0 mi North 5.8 mph - N/A   Overcast
7:55 PM 61.0 °F 54.5 °F 79% 30.20 in 10.0 mi NNE 4.6 mph - N/A   Overcast
8:55 PM 60.3 °F 55.2 °F 83% 30.20 in 10.0 mi ENE 4.6 mph - N/A   Mostly Cloudy
9:56 PM 62.4 °F 55.9 °F 79% 30.20 in 10.0 mi ENE 6.9 mph - N/A   Overcast
10:29 PM 62.6 °F 57.2 °F 82% 30.19 in 10.0 mi East 8.1 mph - N/A   Overcast
10:56 PM 62.2 °F 56.5 °F 81% 30.22 in 10.0 mi East 5.8 mph - N/A   Mostly Cloudy
11:57 PM 63.3 °F 57.7 °F 82% 30.20 in 10.0 mi East 8.1 mph - N/A   Overcast